| time (UTC) | temp C | wind direction | speed KPH | gust KPH | rain 1hr cm | rain 24hr cm | rain mn cm | humidity % | barometer mb |
| 20260506211650 | 8 | 321 | 4.8 | 11.3 | 0.13 | 2.31 | 2.31 | 99 | 1007.4 |
| 20260506211146 | 8 | 297 | 3.2 | 14.5 | 0.13 | 2.31 | 2.31 | 99 | 1007.2 |
| 20260506210643 | 8 | 305 | 1.6 | 8.0 | 0.00 | 2.29 | 2.29 | 99 | 1007.0 |
| 20260506210140 | 8 | 313 | 1.6 | 9.7 | 0.00 | 2.29 | 2.29 | 99 | 1007.0 |
| 20260506205638 | 8 | 314 | 6.4 | 9.7 | 0.00 | 2.29 | 2.29 | 99 | 1007.0 |
| 20260506205132 | 8 | 322 | 3.2 | 12.9 | 0.00 | 2.29 | 2.29 | 99 | 1006.7 |
| 20260506204630 | 8 | 317 | 4.8 | 11.3 | 0.18 | 2.29 | 2.29 | 99 | 1006.7 |
| 20260506204127 | 9 | 286 | 1.6 | 4.8 | 0.18 | 2.29 | 2.29 | 99 | 1006.6 |
| 20260506203625 | 9 | 296 | 1.6 | 12.9 | 0.00 | 2.26 | 2.26 | 99 | 1006.8 |
| 20260506203121 | 9 | 313 | 0.0 | 4.8 | 0.00 | 2.26 | 2.26 | 99 | 1006.7 |
| 20260506202620 | 10 | 317 | 4.8 | 8.0 | 0.13 | 2.26 | 2.26 | 99 | 1006.6 |
| 20260506202116 | 10 | 322 | 6.4 | 12.9 | 0.30 | 2.26 | 2.26 | 99 | 1006.6 |
| 20260506201613 | 10 | 265 | 3.2 | 9.7 | 0.18 | 2.24 | 2.24 | 99 | 1006.4 |
| 20260506201109 | 11 | 276 | 4.8 | 8.0 | 0.13 | 2.21 | 2.21 | 99 | 1006.1 |
| 20260506200606 | 11 | 282 | 1.6 | 12.9 | 0.13 | 2.21 | 2.21 | 99 | 1006.3 |
| 20260506195559 | 12 | 260 | 3.2 | 4.8 | 0.00 | 2.18 | 2.18 | 99 | 1005.9 |
| 20260506195056 | 12 | 237 | 4.8 | 8.0 | 0.00 | 2.18 | 2.18 | 99 | 1005.8 |
| 20260506194553 | 12 | 243 | 1.6 | 3.2 | 0.00 | 2.18 | 2.18 | 99 | 1006.2 |
| 20260506194049 | 12 | 241 | 4.8 | 9.7 | 0.00 | 2.18 | 2.18 | 99 | 1006.2 |
| 20260506193547 | 12 | 281 | 8.0 | 12.9 | 0.00 | 2.18 | 2.18 | 99 | 1006.2 |
| 20260506193044 | 12 | 219 | 6.4 | 9.7 | 0.00 | 2.18 | 2.18 | 99 | 1006.2 |
| 20260506192541 | 12 | 254 | 3.2 | 12.9 | 0.00 | 2.18 | 2.18 | 99 | 1006.2 |
| 20260506192037 | 12 | 189 | 9.7 | 14.5 | 0.00 | 2.18 | 2.18 | 99 | 1006.1 |
| 20260506191534 | 12 | 262 | 0.0 | 9.7 | 0.00 | 2.18 | 2.18 | 99 | 1006.0 |
| 20260506191030 | 13 | 201 | 9.7 | 12.9 | 0.00 | 2.18 | 2.18 | 99 | 1006.1 |
| 20260506190527 | 13 | 255 | 4.8 | 4.8 | 0.00 | 2.18 | 2.18 | 99 | 1006.3 |
| 20260506190024 | 12 | 257 | 1.6 | 9.7 | 0.00 | 2.18 | 2.18 | 99 | 1006.2 |
| 20260506185521 | 12 | 249 | 8.0 | 16.1 | 0.00 | 2.18 | 2.18 | 99 | 1006.0 |
| 20260506185018 | 12 | 256 | 8.0 | 14.5 | 0.00 | 2.18 | 2.18 | 99 | 1006.1 |
| 20260506184515 | 12 | 270 | 6.4 | 8.0 | 0.00 | 2.18 | 2.18 | 99 | 1006.3 |
| 20260506184012 | 12 | 227 | 4.8 | 14.5 | 0.00 | 2.18 | 2.18 | 99 | 1006.2 |
| 20260506183508 | 12 | 216 | 6.4 | 9.7 | 0.00 | 2.18 | 2.18 | 99 | 1006.2 |
| 20260506183005 | 12 | 237 | 8.0 | 9.7 | 0.00 | 2.18 | 2.18 | 99 | 1006.1 |
| 20260506182502 | 13 | 261 | 4.8 | 9.7 | 0.00 | 2.18 | 2.18 | 99 | 1006.2 |
| 20260506181959 | 13 | 243 | 4.8 | 8.0 | 0.00 | 2.18 | 2.18 | 99 | 1006.1 |
| 20260506181457 | 13 | 241 | 0.0 | 8.0 | 0.00 | 2.18 | 2.18 | 99 | 1006.3 |
| 20260506180954 | 13 | 238 | 4.8 | 8.0 | 0.18 | 2.18 | 2.18 | 99 | 1006.3 |
| 20260506180450 | 12 | 229 | 3.2 | 20.9 | 0.18 | 2.18 | 2.18 | 99 | 1006.4 |
| 20260506175947 | 12 | 252 | 3.2 | 12.9 | 0.00 | 2.16 | 2.16 | 99 | 1006.2 |
| 20260506175444 | 12 | 227 | 6.4 | 11.3 | 0.00 | 2.16 | 2.16 | 99 | 1006.3 |
| 20260506174940 | 12 | 246 | 1.6 | 8.0 | 0.00 | 2.16 | 2.16 | 99 | 1006.4 |
| 20260506174438 | 12 | 239 | 6.4 | 22.5 | 0.00 | 2.16 | 2.16 | 99 | 1006.5 |
| 20260506173934 | 12 | 235 | 3.2 | 8.0 | 0.13 | 2.16 | 2.16 | 99 | 1006.3 |
| 20260506173432 | 12 | 262 | 1.6 | 9.7 | 0.13 | 2.16 | 2.16 | 99 | 1006.4 |
| 20260506172929 | 12 | 257 | 3.2 | 11.3 | 0.18 | 2.13 | 2.13 | 99 | 1006.5 |
| 20260506172426 | 12 | 249 | 1.6 | 9.7 | 0.18 | 2.13 | 2.13 | 99 | 1006.5 |
| 20260506171923 | 12 | 241 | 6.4 | 8.0 | 0.18 | 2.11 | 2.11 | 99 | 1006.4 |
| 20260506171420 | 12 | 194 | 8.0 | 17.7 | 0.18 | 2.11 | 2.11 | 99 | 1006.5 |
| 20260506170918 | 12 | 203 | 4.8 | 14.5 | 0.13 | 2.08 | 2.08 | 99 | 1006.5 |
| 20260506170413 | 12 | 199 | 6.4 | 12.9 | 0.13 | 2.08 | 2.08 | 99 | 1006.7 |
| 20260506165907 | 12 | 232 | 11.3 | 14.5 | 0.18 | 2.06 | 2.06 | 99 | 1006.5 |
| 20260506165405 | 12 | 213 | 8.0 | 14.5 | 0.30 | 2.06 | 2.06 | 99 | 1006.6 |
| 20260506164901 | 12 | 210 | 6.4 | 9.7 | 0.13 | 2.03 | 2.03 | 99 | 1006.4 |
| 20260506164357 | 12 | 223 | 4.8 | 12.9 | 0.00 | 2.01 | 2.01 | 99 | 1006.7 |
| 20260506163855 | 12 | 221 | 1.6 | 11.3 | 0.18 | 2.01 | 2.01 | 99 | 1006.8 |
| 20260506163349 | 12 | 242 | 4.8 | 17.7 | 0.30 | 2.01 | 2.01 | 99 | 1006.7 |
| 20260506162845 | 12 | 220 | 3.2 | 11.3 | 0.30 | 1.98 | 1.98 | 99 | 1006.7 |
| 20260506162343 | 12 | 182 | 4.8 | 17.7 | 0.48 | 1.96 | 1.96 | 99 | 1006.8 |
| 20260506161841 | 12 | 239 | 6.4 | 11.3 | 0.61 | 1.93 | 1.93 | 99 | 1006.7 |
| 20260506161338 | 12 | 198 | 3.2 | 14.5 | 0.43 | 1.88 | 1.88 | 99 | 1006.8 |
| 20260506160835 | 12 | 210 | 9.7 | 16.1 | 0.30 | 1.83 | 1.83 | 99 | 1006.8 |
| 20260506160332 | 12 | 229 | 6.4 | 12.9 | 0.48 | 1.80 | 1.80 | 99 | 1006.9 |
| 20260506155831 | 12 | 201 | 8.0 | 12.9 | 0.61 | 1.78 | 1.78 | 99 | 1006.8 |
| 20260506155327 | 12 | 199 | 6.4 | 16.1 | 0.48 | 1.73 | 1.73 | 99 | 1007.0 |
| 20260506153445 | 12 | 246 | 1.6 | 4.8 | 0.30 | 1.55 | 1.55 | 99 | 1006.8 |
| 20260506152942 | 12 | 247 | 4.8 | 8.0 | 0.00 | 1.50 | 1.50 | 99 | 1006.6 |
| 20260506152439 | 12 | 222 | 4.8 | 11.3 | 0.13 | 1.50 | 1.50 | 99 | 1006.6 |
| 20260506151937 | 12 | 254 | 1.6 | 4.8 | 0.00 | 1.47 | 1.47 | 99 | 1006.9 |
| 20260506151434 | 12 | 230 | 4.8 | 9.7 | 0.18 | 1.47 | 1.47 | 99 | 1006.8 |
| 20260506150932 | 12 | 200 | 6.4 | 11.3 | 0.36 | 1.47 | 1.47 | 99 | 1006.5 |
| 20260506150428 | 12 | 218 | 6.4 | 16.1 | 0.18 | 1.45 | 1.45 | 99 | 1006.5 |
| 20260506145925 | 12 | 227 | 9.7 | 12.9 | 0.00 | 1.42 | 1.42 | 99 | 1006.5 |
| 20260506145421 | 12 | 202 | 11.3 | 16.1 | 0.13 | 1.42 | 1.42 | 99 | 1006.5 |
| 20260506144919 | 12 | 227 | 8.0 | 12.9 | 0.30 | 1.42 | 1.42 | 99 | 1006.7 |
| 20260506144415 | 12 | 258 | 4.8 | 9.7 | 0.18 | 1.40 | 1.40 | 99 | 1006.8 |
| 20260506143914 | 12 | 210 | 4.8 | 9.7 | 0.13 | 1.37 | 1.37 | 99 | 1006.9 |
| 20260506143410 | 12 | 247 | 1.6 | 14.5 | 0.30 | 1.37 | 1.37 | 99 | 1007.0 |
| 20260506142909 | 12 | 249 | 4.8 | 9.7 | 0.30 | 1.35 | 1.35 | 99 | 1007.3 |
| 20260506142406 | 11 | 262 | 6.4 | 12.9 | 0.30 | 1.32 | 1.32 | 99 | 1007.4 |
| 20260506141904 | 11 | 266 | 4.8 | 8.0 | 0.30 | 1.30 | 1.30 | 99 | 1007.2 |
| 20260506141402 | 11 | 272 | 1.6 | 11.3 | 0.30 | 1.27 | 1.27 | 99 | 1007.4 |
| 20260506140900 | 11 | 241 | 4.8 | 11.3 | 0.48 | 1.24 | 1.24 | 99 | 1007.5 |
| 20260506140356 | 11 | 201 | 8.0 | 9.7 | 0.61 | 1.22 | 1.22 | 99 | 1007.6 |
| 20260506135854 | 11 | 246 | 3.2 | 11.3 | 0.48 | 1.17 | 1.17 | 99 | 1007.7 |
| 20260506135350 | 11 | 252 | 0.0 | 9.7 | 0.48 | 1.12 | 1.12 | 99 | 1008.0 |
| 20260506134846 | 11 | 237 | 3.2 | 4.8 | 0.61 | 1.09 | 1.09 | 99 | 1008.1 |
| 20260506134343 | 11 | 235 | 0.0 | 11.3 | 0.61 | 1.04 | 1.04 | 99 | 1008.1 |
| 20260506133840 | 11 | 240 | 4.8 | 9.7 | 0.61 | 0.99 | 0.99 | 99 | 1008.0 |
| 20260506133337 | 11 | 253 | 3.2 | 8.0 | 0.61 | 0.94 | 0.94 | 99 | 1008.2 |
| 20260506132833 | 11 | 288 | 3.2 | 8.0 | 0.61 | 0.89 | 0.89 | 99 | 1008.0 |
| 20260506132331 | 11 | 242 | 3.2 | 4.8 | 0.48 | 0.84 | 0.84 | 99 | 1008.1 |
| 20260506131829 | 11 | 293 | 1.6 | 3.2 | 0.18 | 0.79 | 0.79 | 99 | 1008.1 |
| 20260506131325 | 11 | 266 | 0.0 | 3.2 | 0.13 | 0.76 | 0.76 | 99 | 1008.0 |
| 20260506130822 | 11 | 259 | 1.6 | 3.2 | 0.30 | 0.76 | 0.76 | 99 | 1008.0 |
| 20260506130318 | 11 | 259 | 1.6 | 1.6 | 0.18 | 0.74 | 0.74 | 99 | 1007.8 |
| 20260506125816 | 11 | 237 | 1.6 | 3.2 | 0.00 | 0.71 | 0.71 | 99 | 1007.8 |
| 20260506125314 | 11 | 236 | 1.6 | 3.2 | 0.13 | 0.71 | 0.71 | 99 | 1007.9 |
| 20260506124813 | 11 | 255 | 3.2 | 4.8 | 0.13 | 0.71 | 0.71 | 99 | 1007.8 |
| 20260506124309 | 11 | 266 | 0.0 | 4.8 | 0.18 | 0.69 | 0.69 | 99 | 1007.9 |
| 20260506123807 | 11 | 252 | 3.2 | 4.8 | 0.18 | 0.69 | 0.69 | 99 | 1007.8 |
| 20260506123305 | 11 | 256 | 1.6 | 3.2 | 0.13 | 0.66 | 0.66 | 99 | 1007.8 |
| 20260506122802 | 11 | 247 | 4.8 | 4.8 | 0.13 | 0.66 | 0.66 | 99 | 1007.9 |
| 20260506122259 | 11 | 256 | 1.6 | 3.2 | 0.00 | 0.64 | 0.64 | 99 | 1007.9 |
| 20260506121757 | 11 | 266 | 0.0 | 4.8 | 0.18 | 0.64 | 0.64 | 99 | 1008.0 |
| 20260506121253 | 11 | 253 | 3.2 | 4.8 | 0.18 | 0.64 | 0.64 | 99 | 1007.8 |
| 20260506120751 | 11 | 265 | 3.2 | 4.8 | 0.13 | 0.61 | 0.61 | 99 | 1007.9 |
| 20260506120249 | 11 | 266 | 1.6 | 1.6 | 0.13 | 0.61 | 0.61 | 99 | 1008.0 |
| 20260506115746 | 11 | 248 | 1.6 | 4.8 | 0.18 | 0.58 | 0.58 | 99 | 1007.9 |
| 20260506115244 | 11 | 260 | 1.6 | 3.2 | 0.30 | 0.58 | 0.58 | 99 | 1008.2 |
| 20260506114742 | 11 | 259 | 1.6 | 3.2 | 0.30 | 0.56 | 0.56 | 99 | 1008.0 |
| 20260506114239 | 11 | 243 | 1.6 | 4.8 | 0.36 | 0.53 | 0.53 | 99 | 1008.3 |
| 20260506113737 | 11 | 245 | 3.2 | 3.2 | 0.30 | 0.51 | 0.51 | 99 | 1008.5 |
| 20260506113234 | 11 | 247 | 0.0 | 3.2 | 0.43 | 0.48 | 0.48 | 99 | 1008.5 |
| 20260506112731 | 11 | 246 | 1.6 | 3.2 | 0.61 | 0.46 | 0.46 | 99 | 1008.6 |
| 20260506112228 | 11 | 246 | 1.6 | 3.2 | 0.48 | 0.41 | 0.41 | 99 | 1008.6 |
| 20260506111726 | 11 | 243 | 1.6 | 3.2 | 0.30 | 0.36 | 0.36 | 99 | 1008.8 |
| 20260506111224 | 11 | 242 | 1.6 | 3.2 | 0.30 | 0.33 | 0.33 | 99 | 1008.6 |
| 20260506110721 | 11 | 246 | 1.6 | 3.2 | 0.30 | 0.30 | 0.30 | 99 | 1008.6 |
| 20260506110218 | 11 | 244 | 1.6 | 4.8 | 0.43 | 0.28 | 0.28 | 99 | 1008.4 |
| 20260506105714 | 11 | 243 | 1.6 | 4.8 | 0.48 | 0.25 | 0.25 | 99 | 1008.4 |
| 20260506105211 | 11 | 244 | 0.0 | 3.2 | 0.18 | 0.20 | 0.20 | 99 | 1008.2 |
| 20260506104710 | 11 | 242 | 3.2 | 3.2 | 0.18 | 0.18 | 0.18 | 99 | 1008.1 |
| 20260506104207 | 11 | 243 | 3.2 | 4.8 | 0.30 | 0.18 | 0.18 | 99 | 1008.3 |
| 20260506103703 | 11 | 244 | 3.2 | 4.8 | 0.30 | 0.15 | 0.15 | 98 | 1008.2 |
| 20260506103200 | 11 | 243 | 1.6 | 8.0 | 0.30 | 0.13 | 0.13 | 98 | 1008.0 |
| 20260506102659 | 11 | 243 | 1.6 | 3.2 | 0.13 | 0.10 | 0.10 | 97 | 1008.1 |
| 20260506102156 | 11 | 243 | 1.6 | 8.0 | 0.18 | 0.08 | 0.08 | 96 | 1008.0 |
| 20260506101653 | 11 | 224 | 6.4 | 8.0 | 0.18 | 0.08 | 0.08 | 96 | 1007.9 |
| 20260506101149 | 11 | 242 | 4.8 | 4.8 | 0.13 | 0.05 | 0.05 | 95 | 1008.2 |
| 20260506100648 | 12 | 226 | 3.2 | 3.2 | 0.13 | 0.05 | 0.05 | 93 | 1008.0 |
| 20260506100145 | 12 | 243 | 1.6 | 3.2 | 0.00 | 0.03 | 0.03 | 92 | 1008.0 |
| 20260506095644 | 12 | 256 | 1.6 | 4.8 | 0.18 | 0.03 | 0.03 | 91 | 1007.8 |
| 20260506095140 | 12 | 260 | 0.0 | 3.2 | 0.18 | 0.03 | 0.03 | 90 | 1007.9 |
| 20260506094638 | 13 | 242 | 4.8 | 9.7 | 0.00 | 0.00 | 0.00 | 87 | 1007.8 |
| 20260506094135 | 13 | 249 | 3.2 | 8.0 | 0.00 | 0.00 | 0.00 | 86 | 1008.0 |
| 20260506093634 | 13 | 202 | 4.8 | 8.0 | 0.00 | 0.00 | 0.00 | 85 | 1007.9 |
| 20260506093131 | 13 | 256 | 3.2 | 9.7 | 0.00 | 0.00 | 0.00 | 86 | 1007.8 |
| 20260506092628 | 13 | 166 | 4.8 | 9.7 | 0.00 | 0.00 | 0.00 | 86 | 1007.8 |
| 20260506092125 | 13 | 243 | 4.8 | 11.3 | 0.00 | 0.00 | 0.00 | 88 | 1007.4 |
| 20260506091623 | 12 | 244 | 1.6 | 4.8 | 0.00 | 0.00 | 0.00 | 89 | 1007.8 |
| 20260506091120 | 12 | 114 | 4.8 | 8.0 | 0.00 | 0.00 | 0.00 | 89 | 1007.7 |
| 20260506090619 | 12 | 246 | 3.2 | 9.7 | 0.00 | 0.00 | 0.00 | 90 | 1007.8 |
| 20260506090114 | 12 | 245 | 3.2 | 4.8 | 0.00 | 0.00 | 0.00 | 90 | 1007.5 |
| 20260506085611 | 12 | 233 | 4.8 | 9.7 | 0.00 | 0.00 | 0.00 | 92 | 1007.7 |
| 20260506085108 | 12 | 115 | 4.8 | 8.0 | 0.00 | 0.00 | 0.00 | 92 | 1007.5 |
| 20260506084605 | 12 | 245 | 4.8 | 4.8 | 0.00 | 0.00 | 0.00 | 95 | 1007.5 |
| 20260506084101 | 12 | 266 | 1.6 | 3.2 | 0.00 | 0.00 | 0.00 | 95 | 1007.7 |
| 20260506083558 | 12 | 230 | 4.8 | 8.0 | 0.00 | 0.00 | 0.00 | 96 | 1007.6 |
| 20260506083055 | 12 | 254 | 1.6 | 4.8 | 0.00 | 0.00 | 0.00 | 97 | 1007.4 |
| 20260506082552 | 12 | 277 | 0.0 | 4.8 | 0.00 | 0.00 | 0.00 | 98 | 1007.6 |
| 20260506082048 | 12 | 255 | 1.6 | 8.0 | 0.00 | 0.00 | 0.00 | 99 | 1007.5 |
| 20260506081546 | 12 | 255 | 3.2 | 4.8 | 0.00 | 0.00 | 0.00 | 99 | 1007.6 |
| 20260506081043 | 12 | 264 | 3.2 | 8.0 | 0.00 | 0.00 | 0.00 | 99 | 1007.5 |
| 20260506080541 | 12 | 286 | 1.6 | 4.8 | 0.00 | 0.00 | 0.00 | 99 | 1007.6 |
| 20260506073524 | 11 | 266 | 1.6 | 3.2 | 0.00 | 0.00 | 0.00 | 99 | 1007.8 |
| 20260506073021 | 11 | 250 | 1.6 | 4.8 | 0.00 | 0.00 | 0.00 | 99 | 1008.0 |
| 20260506072519 | 11 | 238 | 3.2 | 3.2 | 0.00 | 0.00 | 0.00 | 99 | 1008.0 |
| 20260506072016 | 11 | 239 | 1.6 | 4.8 | 0.00 | 0.00 | 0.00 | 99 | 1007.9 |
| 20260506071514 | 11 | 250 | 0.0 | 4.8 | 0.00 | 0.00 | 0.00 | 99 | 1008.1 |
| 20260506071011 | 11 | 259 | 0.0 | 3.2 | 0.00 | 0.00 | 0.00 | 99 | 1008.3 |
| 20260506070508 | 11 | 257 | 0.0 | 3.2 | 0.00 | 0.00 | 0.00 | 99 | 1008.2 |
| 20260506062445 | 11 | 281 | 0.0 | 1.6 | 0.00 | 0.00 | 0.00 | 99 | 1008.7 |
| 20260506061941 | 11 | 282 | 0.0 | 0.0 | 0.00 | 0.00 | 0.00 | 99 | 1009.0 |
| 20260506061438 | 11 | 282 | 0.0 | 0.0 | 0.00 | 0.00 | 0.00 | 99 | 1009.3 |
| 20260506060936 | 11 | 282 | 0.0 | 0.0 | 0.00 | 0.00 | 0.00 | 99 | 1008.8 |
| 20260506060434 | 11 | 282 | 0.0 | 0.0 | 0.00 | 0.00 | 0.00 | 99 | 1009.2 |
| 20260506051406 | 11 | 282 | 0.0 | 0.0 | 0.00 | 0.00 | 0.00 | 99 | 1009.8 |
| 20260506050903 | 11 | 282 | 0.0 | 0.0 | 0.00 | 0.00 | 0.00 | 99 | 1009.7 |
| 20260506050400 | 11 | 282 | 0.0 | 0.0 | 0.00 | 0.00 | 0.00 | 99 | 1009.9 |
| 20260506044851 | 11 | 282 | 0.0 | 0.0 | 0.00 | 0.00 | 0.00 | 99 | 1009.9 |
| 20260506044349 | 11 | 282 | 0.0 | 0.0 | 0.00 | 0.00 | 0.00 | 99 | 1010.1 |
| 20260506043845 | 11 | 281 | 0.0 | 0.0 | 0.00 | 0.00 | 0.00 | 99 | 1009.8 |
| 20260506043343 | 11 | 282 | 0.0 | 0.0 | 0.00 | 0.00 | 0.00 | 99 | 1009.8 |
| 20260506042841 | 11 | 282 | 0.0 | 0.0 | 0.00 | 0.00 | 0.00 | 99 | 1009.8 |
| 20260506042340 | 11 | 282 | 0.0 | 0.0 | 0.00 | 0.00 | 0.00 | 99 | 1010.1 |
| 20260506041838 | 11 | 282 | 0.0 | 0.0 | 0.00 | 0.00 | 0.00 | 99 | 1010.0 |
| 20260506041335 | 11 | 282 | 0.0 | 0.0 | 0.00 | 0.00 | 0.00 | 99 | 1010.2 |
| 20260506040832 | 11 | 281 | 0.0 | 1.6 | 0.00 | 0.00 | 0.00 | 99 | 1010.1 |
| 20260506040329 | 11 | 281 | 0.0 | 1.6 | 0.00 | 0.00 | 0.00 | 99 | 1010.2 |
| 20260506035825 | 11 | 282 | 0.0 | 1.6 | 0.00 | 0.43 | 0.43 | 99 | 1010.3 |
| 20260506035323 | 11 | 282 | 0.0 | 0.0 | 0.00 | 0.43 | 0.43 | 99 | 1010.0 |
| 20260506034820 | 11 | 282 | 0.0 | 0.0 | 0.00 | 0.43 | 0.43 | 99 | 1010.1 |
| 20260506034317 | 11 | 282 | 0.0 | 3.2 | 0.00 | 0.43 | 0.43 | 99 | 1010.2 |
| 20260506033814 | 11 | 301 | 0.0 | 1.6 | 0.00 | 0.43 | 0.43 | 99 | 1010.1 |
| 20260506033311 | 12 | 301 | 0.0 | 0.0 | 0.00 | 0.43 | 0.43 | 99 | 1010.1 |
| 20260506032808 | 12 | 301 | 1.6 | 3.2 | 0.00 | 0.43 | 0.43 | 99 | 1010.2 |
| 20260506032306 | 12 | 298 | 1.6 | 3.2 | 0.00 | 0.43 | 0.43 | 99 | 1010.1 |
| 20260506031801 | 12 | 300 | 0.0 | 4.8 | 0.00 | 0.43 | 0.43 | 99 | 1010.0 |
| 20260506031259 | 12 | 301 | 0.0 | 4.8 | 0.00 | 0.43 | 0.43 | 99 | 1010.2 |
| 20260506030756 | 12 | 300 | 0.0 | 1.6 | 0.00 | 0.43 | 0.43 | 99 | 1009.9 |
| 20260506030254 | 12 | 301 | 0.0 | 1.6 | 0.00 | 0.43 | 0.43 | 99 | 1009.9 |
| 20260506025751 | 12 | 301 | 1.6 | 3.2 | 0.00 | 0.43 | 0.43 | 99 | 1010.0 |
| 20260506025247 | 12 | 301 | 1.6 | 8.0 | 0.00 | 0.43 | 0.43 | 99 | 1009.8 |
| 20260506024744 | 12 | 279 | 0.0 | 0.0 | 0.00 | 0.43 | 0.43 | 99 | 1009.6 |
| 20260506024241 | 12 | 278 | 0.0 | 0.0 | 0.00 | 0.43 | 0.43 | 99 | 1009.5 |
| 20260506023737 | 12 | 279 | 0.0 | 3.2 | 0.13 | 0.43 | 0.43 | 99 | 1009.5 |
| 20260506023234 | 13 | 279 | 0.0 | 0.0 | 0.13 | 0.43 | 0.43 | 99 | 1009.8 |
| 20260506022731 | 13 | 279 | 0.0 | 0.0 | 0.00 | 0.41 | 0.41 | 99 | 1009.9 |
| 20260506022229 | 13 | 278 | 0.0 | 0.0 | 0.00 | 0.41 | 0.41 | 99 | 1009.6 |
| 20260506021727 | 13 | 279 | 0.0 | 0.0 | 0.00 | 0.41 | 0.41 | 99 | 1009.7 |
| 20260506021223 | 13 | 279 | 0.0 | 0.0 | 0.18 | 0.41 | 0.41 | 99 | 1009.5 |
| 20260506020720 | 13 | 278 | 0.0 | 1.6 | 0.18 | 0.41 | 0.41 | 99 | 1009.5 |
| 20260506020218 | 13 | 263 | 0.0 | 0.0 | 0.00 | 0.38 | 0.38 | 99 | 1009.6 |
| 20260506015715 | 13 | 263 | 0.0 | 0.0 | 0.00 | 0.38 | 0.38 | 99 | 1009.7 |
| 20260506015213 | 13 | 262 | 0.0 | 3.2 | 0.00 | 0.38 | 0.38 | 99 | 1009.5 |
| 20260506014710 | 13 | 282 | 0.0 | 1.6 | 0.00 | 0.38 | 0.38 | 99 | 1009.5 |
| 20260506014206 | 13 | 281 | 0.0 | 0.0 | 0.00 | 0.38 | 0.38 | 99 | 1009.4 |
| 20260506013703 | 13 | 258 | 3.2 | 3.2 | 0.13 | 0.38 | 0.38 | 99 | 1009.4 |
| 20260506013200 | 13 | 240 | 0.0 | 3.2 | 0.13 | 0.38 | 0.38 | 99 | 1009.5 |
| 20260506012656 | 13 | 245 | 8.0 | 11.3 | 0.18 | 0.36 | 0.36 | 99 | 1009.6 |
| 20260506012153 | 13 | 244 | 0.0 | 9.7 | 0.18 | 0.36 | 0.36 | 99 | 1009.4 |
| 20260506011651 | 14 | 258 | 4.8 | 8.0 | 0.00 | 0.33 | 0.33 | 99 | 1009.3 |
| 20260506011147 | 14 | 236 | 3.2 | 4.8 | 0.00 | 0.33 | 0.33 | 99 | 1009.2 |
| 20260506010646 | 13 | 187 | 1.6 | 3.2 | 0.00 | 0.33 | 0.33 | 99 | 1009.3 |
| 20260506010142 | 13 | 259 | 0.0 | 0.0 | 0.00 | 0.33 | 0.33 | 99 | 1009.2 |
| 20260506005639 | 13 | 259 | 0.0 | 0.0 | 0.00 | 0.33 | 0.33 | 99 | 1009.1 |
| 20260506005136 | 13 | 258 | 0.0 | 0.0 | 0.00 | 0.33 | 0.33 | 99 | 1009.0 |
| 20260506004632 | 13 | 258 | 0.0 | 0.0 | 0.00 | 0.33 | 0.33 | 99 | 1009.0 |
| 20260506004130 | 14 | 258 | 0.0 | 0.0 | 0.00 | 0.33 | 0.33 | 99 | 1009.1 |
| 20260506003626 | 14 | 258 | 0.0 | 0.0 | 0.00 | 0.33 | 0.33 | 99 | 1009.1 |
| 20260506003122 | 14 | 258 | 0.0 | 0.0 | 0.00 | 0.33 | 0.33 | 99 | 1008.6 |
| 20260506002618 | 14 | 258 | 0.0 | 3.2 | 0.00 | 0.33 | 0.33 | 99 | 1008.8 |
| 20260506002114 | 14 | 245 | 1.6 | 4.8 | 0.00 | 0.33 | 0.33 | 99 | 1009.1 |
| 20260506001610 | 14 | 245 | 0.0 | 3.2 | 0.00 | 0.33 | 0.33 | 99 | 1008.8 |
| 20260506001108 | 14 | 244 | 1.6 | 4.8 | 0.00 | 0.33 | 0.33 | 99 | 1008.8 |
| 20260506000605 | 14 | 261 | 0.0 | 3.2 | 0.00 | 0.33 | 0.33 | 99 | 1008.7 |
| 20260505235601 | 14 | 257 | 1.6 | 3.2 | 0.00 | 0.33 | 0.33 | 99 | 1008.4 |
| 20260505235057 | 13 | 246 | 4.8 | 4.8 | 0.00 | 0.33 | 0.33 | 99 | 1008.4 |
| 20260505234554 | 14 | 235 | 3.2 | 3.2 | 0.00 | 0.33 | 0.33 | 99 | 1008.4 |
| 20260505234050 | 14 | 260 | 0.0 | 0.0 | 0.00 | 0.33 | 0.33 | 99 | 1008.5 |
| 20260505233548 | 13 | 260 | 0.0 | 0.0 | 0.00 | 0.33 | 0.33 | 99 | 1008.5 |
| 20260505233046 | 13 | 160 | 8.0 | 11.3 | 0.00 | 0.33 | 0.33 | 99 | 1008.7 |
| 20260505232543 | 13 | 268 | 1.6 | 3.2 | 0.00 | 0.33 | 0.33 | 99 | 1008.5 |
| 20260505232041 | 13 | 285 | 0.0 | 1.6 | 0.18 | 0.33 | 0.33 | 99 | 1008.6 |
| 20260505231537 | 13 | 261 | 0.0 | 3.2 | 0.18 | 0.33 | 0.33 | 99 | 1008.8 |
| 20260505231036 | 13 | 261 | 0.0 | 0.0 | 0.00 | 0.30 | 0.30 | 99 | 1008.4 |
| 20260505230533 | 14 | 261 | 0.0 | 0.0 | 0.00 | 0.30 | 0.30 | 99 | 1008.4 |
| 20260505230029 | 14 | 261 | 0.0 | 0.0 | 0.00 | 0.30 | 0.30 | 99 | 1008.2 |
| 20260505225526 | 14 | 261 | 0.0 | 0.0 | 0.00 | 0.30 | 0.30 | 99 | 1008.2 |
| 20260505225022 | 14 | 261 | 0.0 | 0.0 | 0.00 | 0.30 | 0.30 | 99 | 1008.1 |
| 20260505224520 | 14 | 261 | 0.0 | 0.0 | 0.00 | 0.30 | 0.30 | 99 | 1008.0 |
| 20260505224017 | 14 | 261 | 0.0 | 1.6 | 0.00 | 0.30 | 0.30 | 99 | 1008.0 |
| 20260505223514 | 14 | 261 | 0.0 | 1.6 | 0.00 | 0.30 | 0.30 | 99 | 1007.9 |
| 20260505223010 | 15 | 268 | 1.6 | 3.2 | 0.00 | 0.30 | 0.30 | 99 | 1008.1 |
| 20260505222506 | 14 | 268 | 0.0 | 3.2 | 0.00 | 0.30 | 0.30 | 99 | 1008.4 |
| 20260505222002 | 14 | 268 | 0.0 | 0.0 | 0.00 | 0.30 | 0.30 | 99 | 1008.3 |
| 20260505221500 | 14 | 268 | 0.0 | 0.0 | 0.00 | 0.30 | 0.30 | 99 | 1008.2 |
| 20260505220957 | 14 | 270 | 0.0 | 0.0 | 0.00 | 0.30 | 0.30 | 99 | 1008.0 |
| 20260505220453 | 14 | 269 | 0.0 | 1.6 | 0.00 | 0.30 | 0.30 | 99 | 1008.2 |
| 20260505215951 | 14 | 268 | 1.6 | 1.6 | 0.00 | 0.30 | 0.30 | 99 | 1008.1 |
| 20260505215449 | 14 | 268 | 0.0 | 1.6 | 0.00 | 0.30 | 0.30 | 99 | 1008.0 |
| 20260505214947 | 14 | 270 | 0.0 | 0.0 | 0.00 | 0.30 | 0.30 | 99 | 1008.1 |
| 20260505214444 | 13 | 270 | 0.0 | 0.0 | 0.00 | 0.30 | 0.30 | 99 | 1008.4 |
| 20260505213941 | 13 | 270 | 0.0 | 0.0 | 0.00 | 0.30 | 0.30 | 98 | 1008.5 |
| 20260505213439 | 13 | 270 | 0.0 | 1.6 | 0.00 | 0.30 | 0.30 | 97 | 1008.5 |
| 20260505212935 | 13 | 280 | 0.0 | 3.2 | 0.00 | 0.30 | 0.30 | 97 | 1009.2 |
| 20260505212432 | 13 | 280 | 0.0 | 1.6 | 0.00 | 0.30 | 0.30 | 96 | 1008.7 |